| time (UTC) | temp C | wind direction | speed KPH | gust KPH | rain 1hr cm | rain 24hr cm | rain mn cm | humidity % | barometer mb |
| 20260906131010 | 20 | 62 | 0.0 | 4.8 | 0.00 | 0.00 | 0.00 | 98 | 1021.6 |
| 20260906130509 | 20 | 41 | 0.0 | 3.2 | 0.00 | 0.00 | 0.00 | 98 | 1021.6 |
| 20260906130026 | 20 | 41 | 0.0 | 3.2 | 0.00 | 0.00 | 0.00 | 99 | 1021.5 |
| 20260906125515 | 20 | 51 | 0.0 | 3.2 | 0.00 | 0.00 | 0.00 | 99 | 1021.4 |
| 20260906125008 | 19 | 51 | 0.0 | 3.2 | 0.00 | 0.00 | 0.00 | 99 | 1021.3 |
| 20260906124521 | 19 | 51 | 0.0 | 3.2 | 0.00 | 0.00 | 0.00 | 100 | 1021.2 |
| 20260906124014 | 19 | 37 | 0.0 | 3.2 | 0.00 | 0.00 | 0.00 | 100 | 1021.1 |
| 20260906123516 | 19 | 51 | 0.0 | 3.2 | 0.00 | 0.00 | 0.00 | 100 | 1021.0 |
| 20260906123019 | 19 | 62 | 0.0 | 3.2 | 0.00 | 0.00 | 0.00 | 100 | 1020.8 |
| 20260906122514 | 18 | 58 | 0.0 | 3.2 | 0.00 | 0.00 | 0.00 | 100 | 1020.9 |
| 20260906122014 | 18 | 63 | 0.0 | 3.2 | 0.00 | 0.00 | 0.00 | 100 | 1020.8 |
| 20260906121527 | 18 | 63 | 0.0 | 3.2 | 0.00 | 0.00 | 0.00 | 100 | 1020.9 |
| 20260906121019 | 18 | 32 | 0.0 | 1.6 | 0.00 | 0.00 | 0.00 | 100 | 1020.9 |
| 20260906120514 | 18 | 32 | 0.0 | 0.0 | 0.00 | 0.00 | 0.00 | 100 | 1021.0 |
| 20260906120030 | 18 | 32 | 0.0 | 0.0 | 0.00 | 0.00 | 0.00 | 100 | 1020.9 |
| 20260906115512 | 18 | 32 | 0.0 | 1.6 | 0.00 | 0.00 | 0.00 | 100 | 1020.8 |
| 20260906115012 | 18 | 32 | 0.0 | 3.2 | 0.00 | 0.00 | 0.00 | 100 | 1020.6 |
| 20260906114532 | 18 | 32 | 0.0 | 3.2 | 0.00 | 0.00 | 0.00 | 100 | 1020.5 |
| 20260906114008 | 18 | 32 | 0.0 | 1.6 | 0.00 | 0.00 | 0.00 | 100 | 1020.5 |
| 20260906113503 | 18 | 32 | 0.0 | 3.2 | 0.00 | 0.00 | 0.00 | 100 | 1020.3 |
| 20260906113004 | 18 | 32 | 0.0 | 3.2 | 0.00 | 0.00 | 0.00 | 100 | 1020.3 |
| 20260906112506 | 18 | 32 | 0.0 | 1.6 | 0.00 | 0.00 | 0.00 | 100 | 1020.2 |
| 20260906112010 | 18 | 32 | 0.0 | 1.6 | 0.00 | 0.00 | 0.00 | 100 | 1020.2 |
| 20260906111504 | 18 | 32 | 0.0 | 1.6 | 0.00 | 0.00 | 0.00 | 100 | 1020.1 |
| 20260906111005 | 18 | 32 | 0.0 | 0.0 | 0.00 | 0.00 | 0.00 | 100 | 1020.1 |
| 20260906110510 | 17 | 32 | 0.0 | 1.6 | 0.00 | 0.00 | 0.00 | 100 | 1020.1 |
| 20260906110004 | 17 | 32 | 0.0 | 1.6 | 0.00 | 0.00 | 0.00 | 100 | 1020.1 |
| 20260906105503 | 17 | 32 | 0.0 | 1.6 | 0.00 | 0.00 | 0.00 | 99 | 1020.0 |
| 20260906105008 | 17 | 32 | 0.0 | 1.6 | 0.00 | 0.00 | 0.00 | 99 | 1020.0 |
| 20260906104514 | 17 | 32 | 0.0 | 1.6 | 0.00 | 0.00 | 0.00 | 99 | 1020.0 |
| 20260906104003 | 17 | 32 | 0.0 | 1.6 | 0.00 | 0.00 | 0.00 | 99 | 1020.0 |
| 20260906103504 | 17 | 32 | 0.0 | 1.6 | 0.00 | 0.00 | 0.00 | 99 | 1019.9 |
| 20260906103015 | 17 | 32 | 0.0 | 1.6 | 0.00 | 0.00 | 0.00 | 99 | 1019.9 |
| 20260906102502 | 17 | 32 | 0.0 | 1.6 | 0.00 | 0.00 | 0.00 | 99 | 1019.9 |
| 20260906102008 | 17 | 32 | 0.0 | 1.6 | 0.00 | 0.00 | 0.00 | 99 | 1020.0 |
| 20260906101509 | 17 | 32 | 0.0 | 1.6 | 0.00 | 0.00 | 0.00 | 99 | 1020.0 |
| 20260906101011 | 17 | 32 | 0.0 | 0.0 | 0.00 | 0.00 | 0.00 | 99 | 1020.0 |
| 20260906100505 | 17 | 32 | 0.0 | 1.6 | 0.00 | 0.00 | 0.00 | 99 | 1020.0 |
| 20260906100009 | 17 | 32 | 0.0 | 3.2 | 0.00 | 0.00 | 0.00 | 99 | 1019.9 |
| 20260906095509 | 17 | 32 | 0.0 | 3.2 | 0.00 | 0.00 | 0.00 | 99 | 1020.0 |
| 20260906095012 | 17 | 32 | 0.0 | 3.2 | 0.00 | 0.00 | 0.00 | 99 | 1019.9 |
| 20260906094503 | 17 | 32 | 0.0 | 1.6 | 0.00 | 0.00 | 0.00 | 99 | 1019.8 |
| 20260906094007 | 17 | 32 | 0.0 | 3.2 | 0.00 | 0.00 | 0.00 | 98 | 1019.9 |
| 20260906093512 | 17 | 32 | 0.0 | 3.2 | 0.00 | 0.00 | 0.00 | 98 | 1020.0 |
| 20260906093003 | 17 | 32 | 0.0 | 1.6 | 0.00 | 0.00 | 0.00 | 98 | 1019.9 |
| 20260906092506 | 17 | 32 | 0.0 | 1.6 | 0.00 | 0.00 | 0.00 | 98 | 1019.8 |
| 20260906092007 | 17 | 32 | 0.0 | 1.6 | 0.00 | 0.00 | 0.00 | 98 | 1019.8 |
| 20260906091526 | 17 | 32 | 0.0 | 1.6 | 0.00 | 0.00 | 0.00 | 98 | 1019.7 |
| 20260906091006 | 17 | 32 | 0.0 | 1.6 | 0.00 | 0.00 | 0.00 | 98 | 1019.6 |
| 20260906090507 | 17 | 32 | 0.0 | 0.0 | 0.00 | 0.00 | 0.00 | 98 | 1019.6 |
| 20260906090018 | 17 | 32 | 0.0 | 0.0 | 0.00 | 0.00 | 0.00 | 98 | 1019.6 |
| 20260906085504 | 17 | 32 | 0.0 | 1.6 | 0.00 | 0.00 | 0.00 | 98 | 1019.7 |
| 20260906085005 | 17 | 32 | 0.0 | 1.6 | 0.00 | 0.00 | 0.00 | 98 | 1019.8 |
| 20260906084512 | 17 | 32 | 0.0 | 1.6 | 0.00 | 0.00 | 0.00 | 98 | 1019.9 |
| 20260906084016 | 17 | 32 | 0.0 | 1.6 | 0.00 | 0.00 | 0.00 | 98 | 1019.9 |
| 20260906083503 | 17 | 32 | 0.0 | 1.6 | 0.00 | 0.00 | 0.00 | 98 | 1019.8 |
| 20260906083010 | 17 | 32 | 0.0 | 1.6 | 0.00 | 0.00 | 0.00 | 97 | 1019.8 |
| 20260906082512 | 17 | 32 | 0.0 | 1.6 | 0.00 | 0.00 | 0.00 | 97 | 1019.8 |
| 20260906082004 | 17 | 32 | 0.0 | 1.6 | 0.00 | 0.00 | 0.00 | 97 | 1019.8 |
| 20260906081513 | 17 | 32 | 0.0 | 1.6 | 0.00 | 0.00 | 0.00 | 97 | 1019.8 |
| 20260906081007 | 17 | 32 | 0.0 | 1.6 | 0.00 | 0.00 | 0.00 | 97 | 1019.8 |
| 20260906080514 | 17 | 32 | 0.0 | 1.6 | 0.00 | 0.00 | 0.00 | 96 | 1019.7 |
| 20260906080004 | 17 | 32 | 0.0 | 1.6 | 0.00 | 0.00 | 0.00 | 96 | 1019.6 |
| 20260906075507 | 17 | 32 | 0.0 | 1.6 | 0.00 | 0.00 | 0.00 | 96 | 1019.7 |
| 20260906075011 | 17 | 32 | 0.0 | 1.6 | 0.00 | 0.00 | 0.00 | 96 | 1019.7 |
| 20260906074530 | 17 | 32 | 0.0 | 1.6 | 0.00 | 0.00 | 0.00 | 96 | 1019.7 |
| 20260906074003 | 17 | 32 | 0.0 | 3.2 | 0.00 | 0.00 | 0.00 | 95 | 1019.7 |
| 20260906073510 | 17 | 32 | 0.0 | 3.2 | 0.00 | 0.00 | 0.00 | 95 | 1019.7 |
| 20260906073023 | 17 | 32 | 0.0 | 3.2 | 0.00 | 0.00 | 0.00 | 95 | 1019.7 |
| 20260906072504 | 17 | 32 | 0.0 | 3.2 | 0.00 | 0.00 | 0.00 | 95 | 1019.6 |
| 20260906072007 | 17 | 32 | 0.0 | 0.0 | 0.00 | 0.00 | 0.00 | 95 | 1019.6 |
| 20260906071525 | 17 | 32 | 0.0 | 0.0 | 0.00 | 0.00 | 0.00 | 95 | 1019.6 |
| 20260906071016 | 17 | 32 | 0.0 | 0.0 | 0.00 | 0.00 | 0.00 | 94 | 1019.7 |
| 20260906070506 | 18 | 32 | 0.0 | 1.6 | 0.00 | 0.00 | 0.00 | 94 | 1019.7 |
| 20260906070015 | 18 | 32 | 0.0 | 1.6 | 0.00 | 0.00 | 0.00 | 94 | 1019.6 |
| 20260906065516 | 18 | 32 | 0.0 | 1.6 | 0.00 | 0.00 | 0.00 | 94 | 1019.6 |
| 20260906065005 | 18 | 32 | 0.0 | 1.6 | 0.00 | 0.00 | 0.00 | 94 | 1019.7 |
| 20260906064512 | 18 | 32 | 0.0 | 1.6 | 0.00 | 0.00 | 0.00 | 94 | 1019.7 |
| 20260906064011 | 18 | 32 | 0.0 | 1.6 | 0.00 | 0.00 | 0.00 | 94 | 1019.8 |
| 20260906063512 | 18 | 32 | 0.0 | 1.6 | 0.00 | 0.00 | 0.00 | 94 | 1019.8 |
| 20260906063007 | 18 | 32 | 0.0 | 1.6 | 0.00 | 0.00 | 0.00 | 94 | 1019.8 |
| 20260906062511 | 18 | 32 | 0.0 | 1.6 | 0.00 | 0.00 | 0.00 | 93 | 1019.8 |
| 20260906062014 | 18 | 32 | 0.0 | 1.6 | 0.00 | 0.00 | 0.00 | 93 | 1019.8 |
| 20260906061506 | 18 | 32 | 0.0 | 1.6 | 0.00 | 0.00 | 0.00 | 93 | 1019.7 |
| 20260906061017 | 18 | 32 | 0.0 | 1.6 | 0.00 | 0.00 | 0.00 | 93 | 1019.7 |
| 20260906060510 | 18 | 32 | 0.0 | 1.6 | 0.00 | 0.00 | 0.00 | 93 | 1019.7 |
| 20260906060027 | 18 | 32 | 0.0 | 1.6 | 0.00 | 0.00 | 0.00 | 93 | 1019.6 |
| 20260906055505 | 18 | 32 | 0.0 | 1.6 | 0.00 | 0.00 | 0.00 | 93 | 1019.6 |
| 20260906055011 | 18 | 32 | 0.0 | 1.6 | 0.00 | 0.00 | 0.00 | 92 | 1019.6 |
| 20260906054522 | 18 | 32 | 0.0 | 1.6 | 0.00 | 0.00 | 0.00 | 92 | 1019.6 |
| 20260906054014 | 18 | 32 | 0.0 | 1.6 | 0.00 | 0.00 | 0.00 | 92 | 1019.7 |
| 20260906053508 | 18 | 32 | 0.0 | 1.6 | 0.00 | 0.00 | 0.00 | 92 | 1019.7 |
| 20260906053018 | 18 | 32 | 0.0 | 1.6 | 0.00 | 0.00 | 0.00 | 92 | 1019.7 |
| 20260906052515 | 18 | 32 | 0.0 | 4.8 | 0.00 | 0.00 | 0.00 | 91 | 1019.7 |
| 20260906052006 | 18 | 32 | 0.0 | 4.8 | 0.00 | 0.00 | 0.00 | 91 | 1019.7 |
| 20260906051517 | 18 | 58 | 0.0 | 1.6 | 0.00 | 0.00 | 0.00 | 91 | 1019.7 |
| 20260906051014 | 18 | 58 | 0.0 | 3.2 | 0.00 | 0.00 | 0.00 | 90 | 1019.6 |
| 20260906050518 | 18 | 58 | 0.0 | 3.2 | 0.00 | 0.00 | 0.00 | 90 | 1019.6 |
| 20260906050010 | 18 | 58 | 0.0 | 3.2 | 0.00 | 0.00 | 0.00 | 90 | 1019.4 |
| 20260906045516 | 18 | 58 | 0.0 | 3.2 | 0.00 | 0.00 | 0.00 | 89 | 1019.4 |
| 20260906045016 | 18 | 58 | 0.0 | 3.2 | 0.00 | 0.00 | 0.00 | 89 | 1019.4 |
| 20260906044507 | 18 | 60 | 0.0 | 3.2 | 0.00 | 0.00 | 0.00 | 89 | 1019.4 |
| 20260906044014 | 19 | 49 | 0.0 | 3.2 | 0.00 | 0.00 | 0.00 | 89 | 1019.4 |
| 20260906043514 | 19 | 44 | 0.0 | 3.2 | 0.00 | 0.00 | 0.00 | 88 | 1019.4 |
| 20260906043033 | 19 | 51 | 0.0 | 3.2 | 0.00 | 0.00 | 0.00 | 88 | 1019.4 |
| 20260906042508 | 19 | 46 | 0.0 | 4.8 | 0.00 | 0.00 | 0.00 | 88 | 1019.4 |
| 20260906042010 | 19 | 65 | 0.0 | 6.4 | 0.00 | 0.00 | 0.00 | 87 | 1019.3 |
| 20260906041528 | 19 | 59 | 1.6 | 6.4 | 0.00 | 0.00 | 0.00 | 86 | 1019.1 |
| 20260906041018 | 19 | 64 | 1.6 | 4.8 | 0.00 | 0.00 | 0.00 | 86 | 1019.1 |
| 20260906040510 | 19 | 53 | 0.0 | 6.4 | 0.00 | 0.00 | 0.00 | 85 | 1019.0 |
| 20260906040023 | 19 | 63 | 1.6 | 6.4 | 0.00 | 0.00 | 0.00 | 85 | 1019.0 |
| 20260906035517 | 19 | 63 | 1.6 | 8.0 | 0.00 | 0.00 | 0.00 | 84 | 1018.9 |
| 20260906035008 | 19 | 51 | 1.6 | 9.7 | 0.00 | 0.00 | 0.00 | 84 | 1019.0 |
| 20260906034532 | 20 | 62 | 3.2 | 9.7 | 0.00 | 0.00 | 0.00 | 83 | 1018.9 |
| 20260906034014 | 20 | 64 | 4.8 | 9.7 | 0.00 | 0.00 | 0.00 | 83 | 1018.9 |
| 20260906033514 | 20 | 49 | 1.6 | 9.7 | 0.00 | 0.00 | 0.00 | 83 | 1018.9 |
| 20260906033016 | 20 | 65 | 1.6 | 9.7 | 0.00 | 0.00 | 0.00 | 83 | 1018.8 |
| 20260906032512 | 20 | 53 | 4.8 | 12.9 | 0.00 | 0.00 | 0.00 | 83 | 1018.9 |
| 20260906032016 | 20 | 82 | 3.2 | 12.9 | 0.00 | 0.00 | 0.00 | 84 | 1019.1 |
| 20260906031515 | 20 | 53 | 3.2 | 12.9 | 0.00 | 0.00 | 0.00 | 85 | 1019.0 |
| 20260906031013 | 20 | 58 | 4.8 | 12.9 | 0.00 | 0.00 | 0.00 | 86 | 1018.9 |
| 20260906030517 | 20 | 76 | 4.8 | 12.9 | 0.00 | 0.00 | 0.00 | 86 | 1018.9 |
| 20260906030033 | 20 | 32 | 6.4 | 12.9 | 0.00 | 0.00 | 0.00 | 88 | 1018.8 |
| 20260906025515 | 20 | 67 | 4.8 | 9.7 | 0.00 | 0.00 | 0.00 | 89 | 1018.7 |
| 20260906025014 | 20 | 49 | 4.8 | 9.7 | 0.00 | 0.00 | 0.00 | 89 | 1018.7 |
| 20260906024531 | 20 | 51 | 1.6 | 9.7 | 0.00 | 0.00 | 0.00 | 89 | 1018.6 |
| 20260906024012 | 20 | 44 | 4.8 | 9.7 | 0.00 | 0.00 | 0.00 | 89 | 1018.7 |
| 20260906023505 | 20 | 41 | 1.6 | 8.0 | 0.00 | 0.00 | 0.00 | 88 | 1018.5 |
| 20260906023006 | 20 | 75 | 3.2 | 6.4 | 0.00 | 0.00 | 0.00 | 88 | 1018.5 |
| 20260906022506 | 20 | 70 | 1.6 | 6.4 | 0.00 | 0.00 | 0.00 | 88 | 1018.5 |
| 20260906022011 | 20 | 58 | 1.6 | 8.0 | 0.00 | 0.00 | 0.00 | 87 | 1018.4 |
| 20260906021505 | 20 | 73 | 1.6 | 9.7 | 0.00 | 0.00 | 0.00 | 87 | 1018.3 |
| 20260906021006 | 20 | 60 | 1.6 | 9.7 | 0.00 | 0.00 | 0.00 | 87 | 1018.2 |
| 20260906020508 | 20 | 60 | 3.2 | 8.0 | 0.00 | 0.00 | 0.00 | 86 | 1018.3 |
| 20260906020004 | 20 | 56 | 0.0 | 6.4 | 0.00 | 0.00 | 0.00 | 86 | 1018.2 |
| 20260906015503 | 20 | 56 | 3.2 | 9.7 | 0.00 | 0.00 | 0.00 | 86 | 1018.2 |
| 20260906015007 | 21 | 58 | 3.2 | 9.7 | 0.00 | 0.00 | 0.00 | 86 | 1018.2 |
| 20260906014516 | 21 | 69 | 3.2 | 9.7 | 0.00 | 0.00 | 0.00 | 86 | 1018.2 |
| 20260906014002 | 21 | 42 | 3.2 | 9.7 | 0.00 | 0.00 | 0.00 | 86 | 1018.1 |
| 20260906013507 | 21 | 63 | 3.2 | 9.7 | 0.00 | 0.00 | 0.00 | 86 | 1018.2 |
| 20260906013012 | 21 | 70 | 3.2 | 12.9 | 0.00 | 0.00 | 0.00 | 85 | 1018.1 |
| 20260906012503 | 21 | 68 | 4.8 | 12.9 | 0.00 | 0.00 | 0.00 | 85 | 1018.2 |
| 20260906012003 | 21 | 53 | 6.4 | 9.7 | 0.00 | 0.00 | 0.00 | 86 | 1018.3 |
| 20260906011508 | 21 | 66 | 3.2 | 9.7 | 0.00 | 0.00 | 0.00 | 85 | 1018.3 |
| 20260906011009 | 21 | 66 | 4.8 | 11.3 | 0.00 | 0.00 | 0.00 | 85 | 1018.3 |
| 20260906010502 | 21 | 86 | 3.2 | 11.3 | 0.00 | 0.00 | 0.00 | 85 | 1018.3 |
| 20260906010005 | 21 | 87 | 4.8 | 16.1 | 0.00 | 0.00 | 0.00 | 86 | 1018.3 |
| 20260906005510 | 21 | 11 | 4.8 | 16.1 | 0.00 | 0.00 | 0.00 | 85 | 1018.4 |
| 20260906005012 | 21 | 56 | 6.4 | 16.1 | 0.00 | 0.00 | 0.00 | 86 | 1018.4 |
| 20260906004504 | 21 | 88 | 6.4 | 12.9 | 0.00 | 0.00 | 0.00 | 86 | 1018.4 |
| 20260906004008 | 21 | 61 | 6.4 | 12.9 | 0.00 | 0.00 | 0.00 | 86 | 1018.5 |
| 20260906003511 | 21 | 96 | 6.4 | 16.1 | 0.00 | 0.00 | 0.00 | 86 | 1018.4 |
| 20260906003004 | 21 | 60 | 8.0 | 16.1 | 0.00 | 0.00 | 0.00 | 86 | 1018.3 |
| 20260906002504 | 21 | 95 | 8.0 | 12.9 | 0.00 | 0.00 | 0.00 | 86 | 1018.3 |
| 20260906002009 | 22 | 65 | 4.8 | 12.9 | 0.00 | 0.00 | 0.00 | 85 | 1018.3 |
| 20260906001540 | 22 | 54 | 4.8 | 12.9 | 0.00 | 0.00 | 0.00 | 85 | 1018.3 |
| 20260906001006 | 22 | 75 | 3.2 | 8.0 | 0.00 | 0.00 | 0.00 | 84 | 1018.3 |
| 20260906000504 | 22 | 58 | 3.2 | 12.9 | 0.00 | 0.00 | 0.00 | 83 | 1018.3 |
| 20260906000017 | 22 | 32 | 4.8 | 14.5 | 0.00 | 0.00 | 0.00 | 83 | 1018.3 |
| 20260905235506 | 22 | 77 | 6.4 | 14.5 | 0.00 | 0.00 | 0.00 | 83 | 1018.2 |
| 20260905235007 | 22 | 49 | 4.8 | 12.9 | 0.00 | 0.00 | 0.00 | 82 | 1018.1 |
| 20260905234509 | 22 | 56 | 6.4 | 12.9 | 0.00 | 0.00 | 0.00 | 81 | 1018.1 |
| 20260905234013 | 22 | 77 | 6.4 | 12.9 | 0.00 | 0.00 | 0.00 | 81 | 1018.2 |
| 20260905233504 | 23 | 52 | 3.2 | 9.7 | 0.00 | 0.00 | 0.00 | 81 | 1018.3 |
| 20260905233015 | 23 | 54 | 3.2 | 11.3 | 0.00 | 0.00 | 0.00 | 81 | 1018.3 |
| 20260905232510 | 23 | 48 | 6.4 | 11.3 | 0.00 | 0.00 | 0.00 | 81 | 1018.3 |
| 20260905232004 | 23 | 49 | 1.6 | 4.8 | 0.00 | 0.00 | 0.00 | 82 | 1018.2 |
| 20260905231512 | 23 | 51 | 0.0 | 8.0 | 0.00 | 0.00 | 0.00 | 82 | 1018.3 |
| 20260905231009 | 23 | 59 | 4.8 | 9.7 | 0.00 | 0.00 | 0.00 | 81 | 1018.3 |
| 20260905230512 | 23 | 48 | 3.2 | 14.5 | 0.00 | 0.00 | 0.00 | 80 | 1018.2 |
| 20260905230004 | 23 | 68 | 8.0 | 14.5 | 0.00 | 0.00 | 0.00 | 79 | 1018.2 |
| 20260905225507 | 23 | 28 | 4.8 | 9.7 | 0.00 | 0.00 | 0.00 | 80 | 1018.1 |
| 20260905225009 | 23 | 42 | 1.6 | 12.9 | 0.00 | 0.00 | 0.00 | 80 | 1018.0 |
| 20260905224527 | 23 | 58 | 3.2 | 16.1 | 0.00 | 0.00 | 0.00 | 79 | 1017.9 |
| 20260905224004 | 23 | 101 | 6.4 | 16.1 | 0.00 | 0.00 | 0.00 | 77 | 1018.0 |
| 20260905223508 | 24 | 65 | 6.4 | 14.5 | 0.00 | 0.00 | 0.00 | 77 | 1017.8 |
| 20260905223039 | 24 | 56 | 4.8 | 14.5 | 0.00 | 0.00 | 0.00 | 76 | 1017.8 |
| 20260905222503 | 24 | 37 | 3.2 | 12.9 | 0.00 | 0.00 | 0.00 | 76 | 1017.8 |
| 20260905222007 | 24 | 53 | 4.8 | 12.9 | 0.00 | 0.00 | 0.00 | 75 | 1017.7 |
| 20260905221522 | 24 | 82 | 4.8 | 11.3 | 0.00 | 0.00 | 0.00 | 75 | 1017.8 |
| 20260905221017 | 23 | 65 | 4.8 | 12.9 | 0.00 | 0.00 | 0.00 | 77 | 1017.7 |
| 20260905220510 | 23 | 89 | 4.8 | 12.9 | 0.00 | 0.00 | 0.00 | 78 | 1017.8 |
| 20260905220015 | 23 | 32 | 6.4 | 12.9 | 0.00 | 0.00 | 0.00 | 79 | 1017.7 |
| 20260905215514 | 23 | 74 | 6.4 | 12.9 | 0.00 | 0.00 | 0.00 | 79 | 1017.7 |
| 20260905215005 | 23 | 60 | 4.8 | 12.9 | 0.00 | 0.00 | 0.00 | 80 | 1017.6 |
| 20260905214512 | 23 | 61 | 4.8 | 19.3 | 0.00 | 0.00 | 0.00 | 80 | 1017.6 |
| 20260905214011 | 23 | 30 | 6.4 | 19.3 | 0.00 | 0.00 | 0.00 | 80 | 1017.6 |
| 20260905213516 | 24 | 38 | 6.4 | 12.9 | 0.00 | 0.00 | 0.00 | 80 | 1017.5 |
| 20260905213009 | 24 | 37 | 3.2 | 12.9 | 0.00 | 0.00 | 0.00 | 79 | 1017.7 |
| 20260905212510 | 24 | 68 | 3.2 | 14.5 | 0.00 | 0.00 | 0.00 | 79 | 1017.7 |
| 20260905212014 | 24 | 77 | 8.0 | 14.5 | 0.00 | 0.00 | 0.00 | 78 | 1017.6 |
| 20260905211506 | 25 | 58 | 6.4 | 12.9 | 0.00 | 0.00 | 0.00 | 79 | 1017.5 |
| 20260905211008 | 24 | 193 | 4.8 | 14.5 | 0.00 | 0.00 | 0.00 | 79 | 1017.5 |
| 20260905210512 | 24 | 49 | 4.8 | 14.5 | 0.00 | 0.00 | 0.00 | 80 | 1017.6 |
| 20260905210038 | 24 | 56 | 4.8 | 14.5 | 0.00 | 0.00 | 0.00 | 81 | 1017.6 |
| 20260905205503 | 24 | 43 | 3.2 | 14.5 | 0.00 | 0.00 | 0.00 | 81 | 1017.6 |
| 20260905205008 | 24 | 46 | 6.4 | 12.9 | 0.00 | 0.00 | 0.00 | 80 | 1017.6 |
| 20260905204520 | 24 | 52 | 6.4 | 14.5 | 0.00 | 0.00 | 0.00 | 79 | 1017.6 |
| 20260905204016 | 25 | 48 | 6.4 | 14.5 | 0.00 | 0.00 | 0.00 | 78 | 1017.6 |
| 20260905203511 | 25 | 74 | 8.0 | 11.3 | 0.00 | 0.00 | 0.00 | 77 | 1017.6 |
| 20260905203018 | 25 | 91 | 3.2 | 11.3 | 0.00 | 0.00 | 0.00 | 79 | 1017.6 |
| 20260905202514 | 25 | 76 | 3.2 | 11.3 | 0.00 | 0.00 | 0.00 | 79 | 1017.6 |
| 20260905202004 | 25 | 62 | 3.2 | 8.0 | 0.00 | 0.00 | 0.00 | 79 | 1017.7 |
| 20260905201523 | 25 | 55 | 3.2 | 8.0 | 0.00 | 0.00 | 0.00 | 79 | 1017.6 |
| 20260905201014 | 25 | 57 | 4.8 | 11.3 | 0.00 | 0.00 | 0.00 | 78 | 1017.6 |
| 20260905200520 | 25 | 67 | 4.8 | 12.9 | 0.00 | 0.00 | 0.00 | 78 | 1017.5 |
| 20260905200012 | 25 | 27 | 3.2 | 12.9 | 0.00 | 0.00 | 0.00 | 77 | 1017.5 |
| 20260905195513 | 25 | 84 | 6.4 | 12.9 | 0.00 | 0.00 | 0.00 | 75 | 1017.5 |
| 20260905195015 | 25 | 63 | 3.2 | 9.7 | 0.00 | 0.00 | 0.00 | 75 | 1017.6 |
| 20260905194505 | 25 | 75 | 3.2 | 8.0 | 0.00 | 0.00 | 0.00 | 76 | 1017.6 |
| 20260905194009 | 25 | 19 | 0.0 | 11.3 | 0.00 | 0.00 | 0.00 | 77 | 1017.6 |
| 20260905193513 | 25 | 56 | 3.2 | 11.3 | 0.00 | 0.00 | 0.00 | 76 | 1017.6 |
| 20260905193036 | 26 | 70 | 4.8 | 14.5 | 0.00 | 0.00 | 0.00 | 75 | 1017.6 |
| 20260905192508 | 26 | 65 | 3.2 | 14.5 | 0.00 | 0.00 | 0.00 | 73 | 1017.6 |
| 20260905192013 | 26 | 49 | 0.0 | 6.4 | 0.00 | 0.00 | 0.00 | 72 | 1017.5 |
| 20260905191528 | 26 | 25 | 1.6 | 8.0 | 0.00 | 0.00 | 0.00 | 74 | 1017.6 |
| 20260905191004 | 26 | 55 | 3.2 | 9.7 | 0.00 | 0.00 | 0.00 | 74 | 1017.5 |
| 20260905190510 | 26 | 32 | 3.2 | 9.7 | 0.00 | 0.00 | 0.00 | 74 | 1017.4 |
| 20260905190026 | 26 | 49 | 1.6 | 11.3 | 0.00 | 0.00 | 0.00 | 74 | 1017.4 |
| 20260905185515 | 26 | 56 | 3.2 | 11.3 | 0.00 | 0.00 | 0.00 | 73 | 1017.5 |
| 20260905185007 | 26 | 30 | 0.0 | 6.4 | 0.00 | 0.00 | 0.00 | 73 | 1017.5 |
| 20260905184533 | 26 | 37 | 1.6 | 9.7 | 0.00 | 0.00 | 0.00 | 73 | 1017.5 |
| 20260905184015 | 26 | 38 | 1.6 | 11.3 | 0.00 | 0.00 | 0.00 | 72 | 1017.6 |
| 20260905183517 | 26 | 36 | 4.8 | 11.3 | 0.00 | 0.00 | 0.00 | 72 | 1017.6 |
| 20260905183019 | 26 | 79 | 1.6 | 8.0 | 0.00 | 0.00 | 0.00 | 72 | 1017.5 |
| 20260905182514 | 26 | 32 | 0.0 | 4.8 | 0.00 | 0.00 | 0.00 | 73 | 1017.5 |
| 20260905182014 | 26 | 279 | 0.0 | 8.0 | 0.00 | 0.00 | 0.00 | 74 | 1017.5 |
| 20260905181512 | 26 | 57 | 0.0 | 8.0 | 0.00 | 0.00 | 0.00 | 76 | 1017.7 |
| 20260905181011 | 25 | 65 | 3.2 | 9.7 | 0.00 | 0.00 | 0.00 | 75 | 1017.7 |
| 20260905180516 | 26 | 16 | 3.2 | 9.7 | 0.00 | 0.00 | 0.00 | 74 | 1017.7 |
| 20260905180038 | 26 | 46 | 1.6 | 6.4 | 0.00 | 0.00 | 0.00 | 74 | 1017.8 |
| 20260905175512 | 26 | 55 | 0.0 | 6.4 | 0.00 | 0.00 | 0.00 | 73 | 1017.7 |
| 20260905175015 | 26 | 36 | 0.0 | 4.8 | 0.00 | 0.00 | 0.00 | 74 | 1017.7 |
| 20260905174528 | 26 | 47 | 1.6 | 4.8 | 0.00 | 0.00 | 0.00 | 72 | 1017.8 |
| 20260905174006 | 26 | 13 | 0.0 | 6.4 | 0.00 | 0.00 | 0.00 | 73 | 1017.8 |
| 20260905173503 | 26 | 54 | 1.6 | 6.4 | 0.00 | 0.00 | 0.00 | 73 | 1017.8 |
| 20260905173005 | 26 | 13 | 0.0 | 3.2 | 0.00 | 0.00 | 0.00 | 75 | 1017.8 |
| 20260905172508 | 26 | 331 | 0.0 | 3.2 | 0.00 | 0.00 | 0.00 | 78 | 1017.8 |
| 20260905172010 | 25 | 281 | 0.0 | 1.6 | 0.00 | 0.00 | 0.00 | 78 | 1017.8 |
| 20260905171506 | 25 | 31 | 0.0 | 3.2 | 0.00 | 0.00 | 0.00 | 79 | 1017.9 |
| 20260905171005 | 25 | 52 | 0.0 | 4.8 | 0.00 | 0.00 | 0.00 | 79 | 1017.8 |
| 20260905170510 | 25 | 63 | 0.0 | 4.8 | 0.00 | 0.00 | 0.00 | 78 | 1017.8 |
| 20260905170003 | 25 | 36 | 0.0 | 4.8 | 0.00 | 0.00 | 0.00 | 78 | 1017.8 |
| 20260905165502 | 25 | 36 | 0.0 | 4.8 | 0.00 | 0.00 | 0.00 | 77 | 1017.8 |
| 20260905165008 | 25 | 40 | 0.0 | 3.2 | 0.00 | 0.00 | 0.00 | 77 | 1017.8 |
| 20260905164515 | 25 | 38 | 0.0 | 4.8 | 0.00 | 0.00 | 0.00 | 78 | 1017.8 |
| 20260905164003 | 25 | 60 | 0.0 | 4.8 | 0.00 | 0.00 | 0.00 | 78 | 1017.7 |
| 20260905163505 | 25 | 43 | 0.0 | 4.8 | 0.00 | 0.00 | 0.00 | 81 | 1017.7 |
| 20260905163012 | 24 | 257 | 0.0 | 4.8 | 0.00 | 0.00 | 0.00 | 84 | 1017.8 |
| 20260905162502 | 24 | 48 | 0.0 | 4.8 | 0.00 | 0.00 | 0.00 | 84 | 1017.9 |
| 20260905162002 | 23 | 1 | 0.0 | 4.8 | 0.00 | 0.00 | 0.00 | 85 | 1017.9 |
| 20260905161510 | 23 | 86 | 1.6 | 4.8 | 0.00 | 0.00 | 0.00 | 86 | 1017.8 |
| 20260905161013 | 23 | 49 | 1.6 | 4.8 | 0.00 | 0.00 | 0.00 | 86 | 1017.9 |
| 20260905160502 | 23 | 49 | 0.0 | 1.6 | 0.00 | 0.00 | 0.00 | 87 | 1017.9 |
| 20260905160008 | 23 | 49 | 0.0 | 1.6 | 0.00 | 0.00 | 0.00 | 87 | 1017.9 |
| 20260905155508 | 23 | 49 | 0.0 | 3.2 | 0.00 | 0.00 | 0.00 | 88 | 1017.9 |
| 20260905155012 | 23 | 49 | 0.0 | 4.8 | 0.00 | 0.00 | 0.00 | 88 | 1017.9 |
| 20260905154503 | 23 | 39 | 1.6 | 4.8 | 0.00 | 0.00 | 0.00 | 89 | 1017.8 |
| 20260905154006 | 23 | 40 | 0.0 | 4.8 | 0.00 | 0.00 | 0.00 | 90 | 1017.8 |
| 20260905153511 | 23 | 49 | 0.0 | 4.8 | 0.00 | 0.00 | 0.00 | 91 | 1017.7 |
| 20260905153003 | 22 | 49 | 0.0 | 4.8 | 0.00 | 0.03 | 0.00 | 92 | 1017.7 |
| 20260905152506 | 22 | 49 | 1.6 | 4.8 | 0.00 | 0.03 | 0.00 | 93 | 1017.7 |
| 20260905152008 | 22 | 46 | 0.0 | 6.4 | 0.00 | 0.03 | 0.00 | 94 | 1017.6 |
| 20260905151523 | 22 | 46 | 0.0 | 8.0 | 0.00 | 0.03 | 0.00 | 94 | 1017.6 |
| 20260905151003 | 22 | 63 | 3.2 | 8.0 | 0.00 | 0.05 | 0.00 | 95 | 1017.7 |
| 20260905150511 | 22 | 57 | 1.6 | 14.5 | 0.00 | 0.10 | 0.00 | 95 | 1017.7 |
| 20260905150023 | 22 | 63 | 3.2 | 14.5 | 0.00 | 0.13 | 0.00 | 95 | 1017.6 |
| 20260905145503 | 22 | 58 | 6.4 | 14.5 | 0.00 | 0.28 | 0.00 | 95 | 1017.5 |
| 20260905145006 | 22 | 92 | 4.8 | 11.3 | 0.00 | 0.36 | 0.00 | 96 | 1017.4 |
| 20260905144515 | 22 | 94 | 3.2 | 11.3 | 0.00 | 0.38 | 0.00 | 96 | 1017.4 |
| 20260905144010 | 22 | 36 | 3.2 | 9.7 | 0.00 | 0.41 | 0.00 | 97 | 1017.3 |
| 20260905143504 | 22 | 56 | 1.6 | 11.3 | 0.00 | 0.41 | 0.00 | 97 | 1017.3 |
| 20260905143009 | 22 | 57 | 3.2 | 11.3 | 0.00 | 0.41 | 0.00 | 97 | 1017.3 |
| 20260905142511 | 22 | 46 | 4.8 | 11.3 | 0.00 | 0.41 | 0.00 | 98 | 1017.2 |
| 20260905142002 | 22 | 23 | 1.6 | 11.3 | 0.00 | 0.41 | 0.00 | 98 | 1017.2 |
| 20260905141511 | 22 | 72 | 3.2 | 12.9 | 0.00 | 0.41 | 0.00 | 98 | 1017.1 |
| 20260905141009 | 22 | 59 | 3.2 | 12.9 | 0.00 | 0.41 | 0.00 | 99 | 1017.0 |
| 20260905140511 | 22 | 54 | 1.6 | 9.7 | 0.00 | 0.41 | 0.00 | 99 | 1017.0 |
| 20260905140004 | 22 | 65 | 4.8 | 9.7 | 0.00 | 0.41 | 0.00 | 99 | 1016.9 |
| 20260905135509 | 22 | 67 | 1.6 | 9.7 | 0.00 | 0.41 | 0.00 | 100 | 1017.0 |
| 20260905135011 | 22 | 57 | 3.2 | 9.7 | 0.00 | 0.41 | 0.00 | 100 | 1017.0 |
| 20260905134534 | 22 | 70 | 3.2 | 9.7 | 0.00 | 0.41 | 0.00 | 100 | 1016.9 |
| 20260905134006 | 22 | 40 | 3.2 | 11.3 | 0.00 | 0.41 | 0.00 | 100 | 1017.0 |
| 20260905133510 | 22 | 52 | 3.2 | 11.3 | 0.00 | 0.41 | 0.00 | 100 | 1017.0 |
| 20260905133023 | 22 | 61 | 1.6 | 11.3 | 0.00 | 0.41 | 0.00 | 100 | 1017.1 |
| 20260905132504 | 22 | 54 | 3.2 | 8.0 | 0.00 | 0.41 | 0.00 | 100 | 1017.0 |
| 20260905132011 | 22 | 34 | 4.8 | 9.7 | 0.00 | 0.41 | 0.00 | 100 | 1017.0 |
| 20260905131515 | 21 | 50 | 4.8 | 9.7 | 0.00 | 0.41 | 0.00 | 100 | 1017.1 |